Theta_e
303 300 299 301 299 298 298 298 298 303 304 302 304 303 303 306 306 305 309 310 311 308 307 308 308 308 309 306 306 307 306 307 305 305 305 302 304 303 304 304 305 305 306 307 309
303 300 298 297 297 296 296 297 299 304 304 303 303 303 303 305 306 306 306 307 307 307 307 308 306 306 303 305 304 306 305 306 304 304 304 304 304 305 304 304 305 304 305 308 308
304 301 298 297 296 296 296 296 299 304 304 304 304 304 305 307 304 305 307 307 307 307 308 308 308 306 303 302 303 303 303 303 305 306 305 305 304 304 305 306 305 304 304 306 306
305 303 298 297 296 296 295 296 299 304 304 304 305 305 307 307 307 307 307 306 306 307 308 307 304 304 302 303 302 304 303 304 305 305 305 305 305 305 304 305 303 304 305 305 304
305 304 299 296 296 295 295 296 299 303 303 303 305 307 309 303 306 307 307 306 306 307 307 306 304 303 303 303 303 303 304 304 304 304 305 305 305 305 304 302 302 304 304 303 304
305 304 299 297 296 295 296 297 301 302 302 303 305 308 309 303 307 307 307 306 306 307 307 306 306 303 303 304 302 303 304 304 305 305 305 306 305 306 305 301 301 302 302 301 304
305 303 299 297 295 295 296 297 301 303 303 302 306 308 304 305 307 306 307 307 306 306 306 307 307 304 303 304 302 303 304 304 305 306 306 306 306 306 303 301 301 301 300 302 304
304 302 299 297 295 295 296 300 302 303 303 303 307 307 303 306 307 306 305 306 307 307 307 308 306 303 303 303 304 304 303 306 306 307 307 306 307 306 302 301 301 300 300 303 304
304 303 299 297 295 295 296 301 303 304 305 305 307 307 306 306 306 306 306 306 306 308 308 309 306 304 304 303 303 302 305 307 307 306 307 308 307 305 302 301 301 299 301 302 303
304 304 299 296 295 296 296 302 302 306 307 306 307 305 306 306 306 306 306 307 306 306 307 307 303 303 302 303 306 305 305 305 307 307 306 308 306 303 302 301 300 300 300 300 302
304 303 299 296 295 296 298 302 305 308 306 307 307 307 307 306 306 305 306 307 307 305 307 305 303 303 306 306 307 306 305 306 306 306 306 306 307 304 303 301 300 300 300 299 301
304 303 298 296 295 298 302 304 304 306 307 305 305 305 306 306 307 305 305 307 306 307 306 302 305 306 307 307 307 307 307 308 306 306 306 306 306 304 303 302 301 300 299 300 300
305 304 298 296 296 300 301 302 304 304 308 306 305 306 306 306 305 304 304 306 307 308 307 301 306 306 307 307 306 307 307 308 306 307 306 306 304 304 303 302 301 300 298 299 299
305 304 298 295 298 300 302 302 302 302 303 303 305 305 306 305 305 303 304 306 307 306 305 305 305 307 306 307 308 309 307 308 309 307 309 304 300 306 304 302 301 299 298 298 297
305 304 297 295 302 301 301 302 302 304 311 304 303 303 305 306 305 303 304 305 307 307 303 305 307 308 309 307 308 308 307 308 308 308 304 306 303 304 303 303 302 300 298 297 297
306 303 297 297 301 299 301 302 305 311 319 303 303 306 307 306 305 304 303 303 304 303 304 305 305 307 307 306 306 306 308 306 306 305 304 308 303 299 299 301 302 299 297 296 296
306 300 296 296 299 299 302 303 305 305 301 303 304 306 306 306 305 305 305 304 301 301 301 303 305 305 306 307 306 308 305 306 304 305 307 305 303 301 303 302 301 300 297 295 294
305 299 295 297 298 301 302 304 306 304 303 301 305 306 308 306 305 304 306 302 304 303 299 303 302 305 306 307 307 308 307 305 296 306 307 303 306 305 302 300 300 299 296 294 294
303 297 297 297 298 302 303 304 310 303 304 305 305 307 305 304 305 304 305 303 302 302 301 304 306 305 306 306 306 307 308 305 307 294 304 302 306 303 301 301 299 298 295 293 292
299 298 298 298 299 302 303 303 301 300 303 304 306 305 307 306 305 304 304 302 305 302 302 304 304 304 305 305 306 307 305 305 305 299 303 304 305 305 302 301 300 297 294 293 292
298 299 297 299 301 299 297 297 300 299 303 303 305 306 305 305 305 306 306 304 303 303 303 303 302 304 304 305 305 306 306 306 305 306 305 304 302 300 301 300 299 296 294 293 292
298 301 299 299 300 297 299 298 299 301 301 300 302 302 305 304 305 304 306 305 303 303 304 301 302 303 304 303 303 305 305 305 304 305 305 306 303 301 300 298 298 296 294 293 292
298 296 298 298 301 294 291 293 298 299 299 300 301 301 301 303 305 304 305 301 302 302 302 302 299 298 299 302 302 303 305 305 304 303 306 305 299 299 299 298 297 294 293 292 292
297 299 297 298 298 294 296 295 295 298 299 300 300 300 301 302 302 303 303 302 301 302 303 301 302 299 299 303 302 304 304 304 304 305 303 304 302 300 299 299 297 294 292 291 291
296 299 297 298 298 297 298 296 297 298 299 299 299 299 300 300 302 302 303 302 301 302 300 299 293 301 301 301 301 303 304 304 304 303 301 300 302 302 299 298 297 293 292 292 292
299 298 297 298 300 300 299 296 298 297 299 299 293 299 299 300 301 302 302 301 302 301 299 297 296 296 294 296 296 299 301 303 304 304 300 300 300 299 297 295 295 294 293 292 291
298 299 302 300 300 301 300 298 297 298 297 298 298 299 300 300 300 300 300 301 300 301 299 298 296 297 293 294 293 291 296 299 303 302 303 302 300 296 296 298 297 295 293 292 291
Wind_Speed
8 8 9 10 12 12 14 15 15 15 14 12 11 10 7 7 16 20 13 15 15 19 13 10 11 7 6 5 7 3 5 3 4 4 1 7 5 5 3 5 4 6 3 7 19
9 8 8 10 11 12 13 14 14 13 13 12 11 10 6 8 6 16 17 15 14 13 7 12 8 11 5 5 5 6 4 3 2 1 4 5 6 2 5 6 5 5 9 17 22
9 9 9 9 11 12 12 13 13 12 12 12 11 10 9 5 2 5 19 18 14 9 5 4 7 2 7 5 6 4 4 5 3 2 3 4 7 6 3 5 2 3 5 11 20
9 9 9 10 11 12 12 12 12 9 11 12 12 10 7 3 2 10 17 18 12 7 4 5 5 5 6 5 5 7 5 5 2 3 2 2 3 4 4 3 4 5 6 14 15
9 9 9 9 11 12 12 12 10 8 10 12 12 9 2 5 2 13 15 17 9 7 11 4 6 4 5 6 5 7 4 5 4 5 4 6 5 5 6 6 11 13 12 8 12
9 9 8 9 10 11 12 12 10 8 8 10 10 6 2 4 5 12 11 14 17 11 12 7 4 6 7 4 5 4 6 5 3 4 3 3 2 3 3 3 10 10 9 9 13
8 8 8 9 10 11 11 12 9 8 7 6 7 5 6 2 4 11 6 11 13 10 5 6 5 6 6 6 4 7 6 3 4 1 2 2 4 2 1 8 9 9 8 8 16
8 7 7 8 9 11 12 11 8 6 5 4 5 3 2 3 5 11 8 4 6 7 7 6 14 9 5 5 4 3 4 3 2 1 1 4 3 1 4 11 7 8 7 8 11
8 8 7 7 9 10 11 8 5 5 4 3 2 2 1 3 3 9 9 6 8 6 5 4 5 5 5 5 4 6 2 1 2 3 1 2 3 4 4 8 7 7 8 8 12
9 8 7 7 8 10 9 4 5 5 3 3 3 3 3 2 4 8 6 6 3 5 4 7 6 4 4 4 4 4 3 1 2 2 2 2 3 4 4 9 7 5 7 10 14
9 8 7 6 7 8 8 2 3 3 9 3 0 2 2 4 3 7 8 7 1 7 3 4 6 4 5 2 2 2 3 3 1 2 2 2 1 4 3 7 8 8 8 8 12
10 7 7 6 5 5 5 4 3 1 2 3 2 3 2 3 3 7 12 2 4 3 2 6 3 3 1 2 5 4 3 1 2 1 2 2 5 3 3 4 5 6 8 12 14
12 8 6 5 4 2 5 4 3 1 2 1 1 2 2 3 2 5 6 2 4 4 4 5 3 2 2 3 5 3 3 2 2 4 3 2 4 5 2 2 4 7 7 13 16
13 9 7 4 3 3 3 5 2 1 4 1 1 2 1 2 3 2 5 2 4 5 3 5 0 3 4 3 1 3 2 2 1 3 2 4 4 4 1 6 6 8 11 13 14
15 11 8 6 2 3 5 7 1 1 1 3 0 1 1 3 2 6 3 4 4 3 4 1 3 2 2 3 1 3 2 2 1 2 3 1 2 4 3 5 6 10 10 10 13
18 14 11 7 4 4 9 6 2 5 6 1 1 2 2 2 2 1 3 5 4 5 7 2 1 2 2 2 3 4 3 4 3 2 2 3 4 4 0 3 4 6 7 10 12
21 17 15 10 4 9 9 3 4 4 3 2 3 3 2 2 2 1 2 3 4 5 1 5 2 1 1 4 3 2 4 2 4 3 4 2 2 4 4 3 3 4 7 8 10
23 19 16 12 10 11 4 5 3 2 4 1 3 4 3 2 2 1 4 1 3 3 3 5 4 6 4 3 5 4 4 4 6 3 3 3 4 2 5 5 4 3 4 6 10
27 19 11 11 12 9 4 2 6 6 6 8 3 3 2 2 4 2 5 4 6 8 5 4 1 1 2 1 1 4 3 3 5 2 2 3 1 2 4 2 4 5 6 8 8
26 10 7 11 11 6 4 6 4 2 6 4 5 3 7 5 3 4 6 4 4 5 2 5 3 1 2 1 2 3 2 3 1 2 3 4 4 4 6 3 4 4 6 7 7
20 4 11 13 9 3 4 7 4 2 2 5 6 4 4 6 6 5 5 2 2 4 3 4 3 1 2 6 7 3 3 3 2 3 4 1 5 4 7 6 7 5 5 5 5
10 4 13 17 3 2 3 6 4 4 1 2 2 3 6 7 5 5 7 3 4 5 6 3 4 4 5 2 1 2 5 6 3 5 2 2 5 5 7 7 7 6 6 3 2
6 3 3 3 7 3 3 1 3 4 5 6 6 3 2 6 4 5 5 1 3 3 6 4 1 2 5 2 1 5 5 4 3 2 5 5 4 4 6 6 6 7 7 3 1
5 5 2 1 1 6 5 4 5 2 3 3 4 4 3 3 1 6 3 2 1 3 4 3 2 5 6 2 3 5 6 7 5 3 4 5 5 6 9 8 7 7 7 6 2
3 4 5 8 11 6 7 11 9 6 2 3 2 5 7 4 3 5 3 3 1 4 3 3 5 3 3 2 2 3 4 9 14 6 7 4 10 14 15 12 11 8 7 7 4
6 5 3 3 10 13 12 9 13 6 9 6 5 10 7 7 8 8 7 5 5 3 5 2 2 2 3 3 3 5 7 9 15 13 8 3 6 4 9 7 8 10 10 8 6
5 3 5 11 9 15 10 12 20 12 7 5 13 7 6 5 4 3 3 4 7 9 7 6 5 3 5 2 2 6 16 19 8 8 14 12 9 8 7 13 14 12 12 11 8
Wind_Direction
349 347 350 350 352 355 355 356 358 1 4 6 14 13 12 16 26 49 39 338 328 344 347 353 34 41 64 52 44 86 63 58 11 34 319 348 48 7 40 89 26 2 16 331 11
340 340 342 344 346 350 351 353 358 0 5 6 7 7 4 360 33 39 2 1 350 347 6 21 356 5 44 24 23 66 84 122 240 128 78 30 60 39 67 22 358 6 6 35 28
333 333 333 338 340 345 348 351 355 0 7 9 3 2 356 352 74 337 1 3 357 1 359 5 341 30 57 10 6 46 115 155 27 78 83 109 45 9 56 19 349 324 321 14 28
324 323 325 332 336 340 345 348 351 360 6 9 1 355 1 8 126 347 358 1 6 22 76 39 32 49 63 46 346 96 59 119 143 32 69 63 93 34 48 330 321 53 49 34 22
314 315 317 327 331 335 339 341 343 345 352 1 1 356 24 43 11 352 352 8 19 46 62 76 57 97 95 116 57 73 139 79 117 50 59 93 107 127 22 354 44 45 39 36 25
304 306 310 320 327 331 333 335 337 336 337 354 2 11 42 70 1 354 352 22 35 62 51 50 121 121 87 64 81 116 104 127 95 92 69 98 99 123 20 1 45 38 23 27 10
294 298 304 314 323 327 330 331 335 335 342 354 5 35 58 142 15 5 5 22 17 39 52 43 141 77 124 87 154 138 83 79 15 336 133 158 26 92 271 72 49 28 18 4 353
285 289 297 310 321 326 328 330 329 338 355 13 5 47 91 35 336 9 23 30 36 37 68 74 83 96 76 130 65 80 67 96 297 335 173 101 230 174 1 81 45 23 9 348 346
276 281 288 305 320 323 326 327 339 338 349 18 66 54 72 351 10 2 7 357 353 21 56 59 64 78 38 90 44 17 185 154 305 13 264 145 189 130 39 74 43 26 349 342 347
267 277 281 304 317 325 330 312 323 9 359 74 60 49 15 340 336 341 359 359 19 333 17 44 54 78 40 72 202 184 184 140 206 299 335 174 231 107 59 67 36 9 344 358 350
250 270 276 296 318 338 353 35 19 3 36 81 349 78 13 329 13 3 353 338 61 48 66 5 76 149 153 130 135 167 126 134 221 265 297 252 260 131 46 57 33 9 0 347 340
235 252 266 286 309 346 27 69 98 120 39 4 78 79 54 4 356 351 2 66 61 101 63 27 111 184 198 92 98 71 123 152 308 345 22 310 281 144 68 76 62 11 359 355 343
225 234 245 272 314 64 83 101 113 75 132 351 22 59 305 18 75 325 12 337 87 60 18 128 144 140 107 61 99 48 148 167 199 330 261 340 295 165 196 97 45 25 10 3 353
214 224 225 247 268 136 103 132 123 75 63 215 75 7 15 110 46 329 10 63 45 131 95 85 198 124 105 90 92 155 135 104 16 52 215 89 269 237 349 11 21 8 12 359 345
207 210 209 209 185 182 144 136 95 45 312 59 109 346 321 109 125 359 6 33 90 85 98 191 125 120 118 137 30 144 119 107 69 70 50 195 73 252 19 354 353 5 1 352 345
202 198 192 191 208 175 137 128 109 45 248 192 336 153 110 54 58 341 51 47 123 73 36 112 330 51 103 83 70 125 97 53 47 69 11 217 132 279 293 227 348 350 348 354 341
195 187 186 176 172 165 146 108 68 173 351 205 162 162 120 131 79 109 99 103 145 93 5 358 346 14 135 96 24 88 85 6 353 2 228 132 40 261 143 110 89 352 349 351 338
183 178 185 185 171 165 162 66 174 217 209 203 122 122 149 150 350 85 109 152 219 106 114 150 287 178 173 206 177 182 175 163 206 201 270 319 244 250 142 111 94 60 10 7 354
171 169 178 185 176 169 87 162 212 200 157 147 61 115 174 194 147 108 197 205 204 181 157 136 274 47 109 54 147 180 195 157 107 29 44 214 80 254 145 118 70 45 29 22 354
149 142 150 168 167 141 83 241 219 199 135 144 173 163 169 190 156 173 186 218 178 183 148 207 89 260 161 114 264 193 162 84 4 133 262 269 252 219 190 174 85 46 46 28 350
134 128 174 163 150 64 183 229 218 155 157 158 176 155 164 172 183 185 186 293 161 153 99 152 108 165 84 204 182 172 209 212 127 166 171 252 255 198 165 167 144 116 79 50 349
138 136 165 163 130 165 208 198 180 160 359 163 154 137 165 153 161 194 196 191 188 157 168 172 119 170 197 253 257 251 211 182 156 201 217 142 269 144 152 164 143 143 118 86 345
126 103 113 3 185 212 273 263 170 157 187 181 185 195 157 164 156 179 174 139 209 139 159 163 238 59 343 342 306 218 193 195 124 82 198 149 245 175 138 154 156 154 127 120 46
122 134 89 296 66 162 156 190 191 216 172 173 156 117 116 129 157 168 147 131 21 120 95 112 180 194 196 173 125 203 195 183 165 159 178 223 161 190 184 179 171 166 141 147 138
147 171 178 176 212 191 183 168 166 175 206 199 328 206 166 134 115 169 137 118 56 134 105 146 201 213 227 192 241 240 207 191 209 192 185 215 194 196 189 187 183 173 150 149 167
146 152 139 168 144 162 187 205 187 164 156 211 183 183 191 166 182 184 147 187 186 163 161 153 238 95 299 294 260 268 240 218 226 235 266 209 237 207 160 127 161 174 160 163 173
139 108 135 159 152 171 195 183 200 147 224 191 180 146 183 199 142 103 141 161 167 150 168 159 142 136 257 354 3 304 223 214 200 203 210 212 204 152 152 173 181 180 169 170 166